[[{"header":{"parameterUnit":"m.s-1","parameterCategory":1,"la1":30.2992,"la2":30.254,"lo1":-89.0895,"lo2":-89.0443,"dy":0.0025,"dx":0.0025,"nx":19,"ny":19,"refTime":"2026-03-18T09:00:00:Z","depth":0,"parameterNumber":2,"parameterNumberName":"U-component_of_WINDS"},"data":[0,0,0,1.3452,1.3454,1.3519,1.3519,1.3594,1.3594,0,0,0,0,0,0,0,0,0,0,0,1.3426,1.3427,1.3452,1.3454,1.3519,1.3519,1.3593,1.3594,0,0,0,0,0,0,0,0,0,0,0,1.3426,1.3427,1.3427,1.3454,1.3519,1.3519,1.3593,1.3548,0,0,0,0,0,0,0,0,0,0,1.3486,1.3455,1.3427,1.3427,1.3454,1.3519,1.3519,1.3546,1.355,1.356,0,1.3565,0,1.3581,1.3598,1.3599,0,0,0,1.3459,1.3451,1.3475,1.3427,1.3455,1.3519,1.3491,1.3548,1.3554,1.3566,1.3566,1.3569,1.3582,1.3599,1.3599,1.3631,1.3631,0,0,1.3456,1.3435,1.3471,1.3478,1.3466,1.3489,1.3493,1.3552,1.3551,1.3567,1.3571,1.3583,1.3599,1.36,1.3631,1.3631,0,0,0,1.3442,1.3432,1.3454,1.3474,1.3487,1.3491,1.3495,1.3549,1.3558,1.3572,1.3584,1.36,1.36,1.3631,1.3631,1.3605,0,0,0,1.344,1.3424,1.3453,1.3441,1.3485,1.3518,1.349,1.3553,1.3561,1.3584,1.36,1.3601,1.3632,1.3631,1.3606,1.3596,0,0,0,1.3425,1.3422,1.3429,1.3439,1.3466,1.3518,1.353,1.3555,1.3568,1.3599,1.3601,1.3632,1.3631,1.3607,1.3597,1.3597,0,0,0,1.3403,1.3406,1.3429,1.3437,1.3466,1.3501,1.353,1.3558,1.3581,1.36,1.3632,1.3631,1.3607,1.3598,1.3598,1.3593,1.3589,0,0,1.3396,1.3405,1.3411,1.3433,1.3458,1.3492,1.3515,1.3557,1.3579,1.3613,1.3614,1.3605,1.3597,1.3597,1.3575,1.3571,0,0,0,1.3402,1.3406,1.3418,1.3438,1.3469,1.3495,1.3536,1.3551,1.358,1.3592,1.3607,1.3603,1.3603,1.3602,1.3599,1.36,1.363,1.363,1.363,1.3362,1.339,1.3403,1.3438,1.3458,1.3499,1.3517,1.3546,1.3569,1.3572,1.3582,1.3565,1.3562,1.356,1.3561,1.3582,1.3582,1.3582,1.3582,1.3354,1.3364,1.3394,1.3416,1.3446,1.3466,1.3506,1.3522,1.3545,1.356,1.3562,1.3575,1.3555,1.3558,1.358,1.358,1.3581,1.3581,1.3581,1.333,1.3339,1.3357,1.3389,1.3411,1.3448,1.3468,1.3495,1.3521,1.3523,1.3536,1.3536,1.3539,1.3527,1.3527,1.3527,1.3527,1.3527,1.3527,1.3297,1.3318,1.3332,1.3364,1.3381,1.3406,1.3447,1.3465,1.3491,1.3509,1.3509,1.3531,1.3548,1.3551,1.3526,1.3526,1.3526,1.3527,1.3527,1.3276,1.3285,1.3305,1.3322,1.3362,1.3382,1.3416,1.3449,1.3467,1.3476,1.3499,1.3507,1.3518,1.3521,1.3523,1.3493,1.3493,1.3493,1.3493,1.3255,1.3264,1.329,1.3314,1.3341,1.3374,1.3396,1.3428,1.3463,1.3476,1.3485,1.3491,1.3493,1.3503,1.3506,1.3509,1.3475,1.3475,1.3475,1.3244,1.3256,1.3269,1.3302,1.3336,1.3364,1.3386,1.3413,1.3455,1.3475,1.3487,1.3488,1.3498,1.35,1.3519,1.3523,1.3529,0,0]},{"header":{"parameterUnit":"m.s-1","parameterCategory":1,"la1":30.2992,"la2":30.254,"lo1":-89.0895,"lo2":-89.0443,"dy":0.0025,"dx":0.0025,"nx":19,"ny":19,"refTime":"2026-03-18T09:00:00:Z","depth":0,"parameterNumber":3,"parameterNumberName":"V-component_of_WINDS"},"data":[0,0,0,2.0896,2.0896,2.0867,2.0866,2.0826,2.0826,0,0,0,0,0,0,0,0,0,0,0,2.0905,2.0905,2.0896,2.0896,2.0867,2.0866,2.0826,2.0826,0,0,0,0,0,0,0,0,0,0,0,2.0905,2.0905,2.0905,2.0895,2.0867,2.0866,2.0826,2.0849,0,0,0,0,0,0,0,0,0,0,2.0877,2.0886,2.0905,2.0905,2.0895,2.0867,2.0866,2.085,2.0847,2.0839,0,2.0833,0,2.0829,2.0823,2.0823,0,0,0,2.0895,2.0888,2.0881,2.0905,2.0895,2.0867,2.0879,2.0849,2.0846,2.0835,2.0832,2.083,2.0828,2.0823,2.0823,2.0776,2.0776,0,0,2.0897,2.09,2.0883,2.0879,2.0885,2.088,2.0879,2.0847,2.0843,2.0832,2.083,2.0827,2.0822,2.0822,2.0776,2.0776,0,0,0,2.0902,2.0901,2.0894,2.088,2.0875,2.088,2.0877,2.0844,2.0842,2.0829,2.0827,2.0822,2.0822,2.0777,2.0776,2.0769,0,0,0,2.0903,2.0904,2.0894,2.0896,2.0876,2.086,2.0876,2.0844,2.084,2.0827,2.0822,2.0821,2.0777,2.0776,2.077,2.0765,0,0,0,2.0907,2.0904,2.09,2.0896,2.0884,2.086,2.0856,2.0843,2.0839,2.0823,2.0821,2.0777,2.0776,2.0771,2.0766,2.0752,0,0,0,2.0912,2.0895,2.09,2.088,2.0884,2.0857,2.0856,2.0836,2.0821,2.0822,2.0777,2.0776,2.0771,2.0767,2.0753,2.0741,2.0737,0,0,2.0892,2.0893,2.088,2.0884,2.0857,2.0861,2.0832,2.0816,2.0811,2.0787,2.0786,2.077,2.0766,2.0753,2.0713,2.0709,0,0,0,2.0875,2.0866,2.0858,2.0845,2.0833,2.082,2.0808,2.0802,2.0781,2.08,2.0762,2.076,2.0751,2.0745,2.0742,2.0734,2.0774,2.0774,2.0774,2.0851,2.0846,2.0824,2.0815,2.0802,2.0789,2.0777,2.0766,2.0765,2.0755,2.0748,2.0725,2.0718,2.0716,2.0707,2.0742,2.0742,2.0742,2.0742,2.082,2.0806,2.0804,2.0783,2.0776,2.0758,2.0743,2.0743,2.0722,2.073,2.0723,2.0731,2.0712,2.0704,2.0742,2.0742,2.0742,2.0742,2.0742,2.0803,2.0795,2.0788,2.0767,2.075,2.0741,2.0722,2.0717,2.0712,2.0705,2.0695,2.0695,2.0693,2.0701,2.07,2.07,2.07,2.07,2.07,2.0787,2.0779,2.0765,2.0748,2.0738,2.0724,2.0709,2.0697,2.0684,2.0681,2.0681,2.0679,2.0712,2.0719,2.0699,2.0699,2.0699,2.0699,2.0699,2.0756,2.0762,2.0739,2.0729,2.0708,2.0691,2.0685,2.0662,2.0652,2.0642,2.0641,2.0667,2.0666,2.0669,2.0675,2.0644,2.0644,2.0644,2.0644,2.0741,2.074,2.0715,2.0698,2.0681,2.0672,2.0643,2.063,2.0617,2.061,2.0613,2.0621,2.0624,2.0622,2.0625,2.0631,2.0589,2.0589,2.0589,2.072,2.0718,2.0695,2.0684,2.0667,2.0651,2.0623,2.0601,2.0588,2.0587,2.0603,2.0605,2.0618,2.0623,2.0622,2.0627,2.0637,0,0]}]]